ソーホー彗星

C/1999 N5 ( SOHO )

English version
Home page
Updated on February 12, 2006

---------------------------------------------------------------------

・ プロフィール

* C/1999 N5 = C/2005 E4
* C/1999 N5 = C/2005 G2

・ 軌道要素

Epoch 1999 July 1.0 TT = JDT 2451360.5
T 1999 July 11.19490 TT                                 MPC
q   0.0491952            (2000.0)            P               Q
n   0.17125016     Peri.   22.12065     -0.20082361     -0.87351581
a   3.2115552      Node    81.78500     +0.81825112     -0.39846583
e   0.9846818      Incl.   26.61790     +0.53864179     +0.27963390
P   5.76

---------------------------------------------------------------------

軌道要素はM.P.E.C. 2005-H24に掲載されたものです。

---------------------------------------------------------------------

Copyright(C) Seiichi Yoshida (comet@aerith.net). All rights reserved.